www.pogodaiklimat.ru

ПОГОДА в Солсбери, NC

  • Прогноз погоды в Солсбери
  • Монитор погоды в Солсбери
  • Климат в Солсбери

АРХИВ ПОГОДЫ в Солсбери

Время (UTC), дата Ветер
(напр.,м/с)
 
Видим.   Явления Облачность Т
(С)
Тd
(С)
f
(%)
Тe
(С)
Тes
(С)
Комфортность

P
(гПа)

Po
(гПа)
Тmin
(С)
Tmax
(С)
R
(мм)
SD
(см)
04:00 24.03   16 км    ясно  +2.7  -2.2  70  +2  +2      997.2         
04:20 24.03   16 км    ясно  +2.1  -2.0  74  +1  +1      997.2         
04:40 24.03   16 км    ясно  +1.5  -1.6  80  +1  +1      997.2         
05:00 24.03   16 км    ясно  +1.7  -1.7  78  +1  +1      997.2         
05:20 24.03   16 км    ясно  +0.9  -2.0  81  -0  -0      997.2         
05:40 24.03   16 км    ясно  +1.3  -2.0  79  0  0      997.2         
06:00 24.03   16 км    ясно  +0.7  -1.7  84  -0  -0      996.9         
06:20 24.03   16 км    ясно  +0.6  -1.7  85  -1  -1      996.9         
06:40 24.03   16 км    ясно  +0.8  -1.9  82  -0  -0      996.9         
07:00 24.03   16 км    ясно  +0.1  -1.8  87  -1  -1      996.6         
07:20 24.03   16 км    ясно  0.0  -1.6  89  -1  -1      996.6         
07:40 24.03   16 км    ясно  -0.1  -2.1  86  -1  -1      996.6         
08:00 24.03   16 км    ясно  +0.2  -1.3  90  -1  -1      996.9         
08:20 24.03   16 км    ясно  -0.2  -1.6  90  -1  -1      996.9         
08:40 24.03   16 км    ясно  -0.3  -1.8  90  -2  -2      996.9         
09:00 24.03   16 км    ясно  -0.1  -1.7  89  -1  -1      996.9         
09:20 24.03   16 км    ясно  +0.3  -1.2  90  -1  -1      997.2         
09:40 24.03   16 км    ясно  0.0  -1.4  90  -1  -1      997.2         
10:00 24.03   16 км    ясно  -0.1  -1.4  91  -1  -1      997.6         
10:20 24.03   16 км    ясно  -0.1  -1.3  92  -1  -1      997.6         
10:40 24.03   16 км    ясно  -0.3  -1.3  93  -2  -2      997.9         
11:00 24.03   16 км    ясно  0.0  -1.0  93  -1  -1      997.9         
11:20 24.03   16 км    ясно  +0.8  -0.6  90  -0  0      997.9         
11:40 24.03   16 км    ясно  +2.0  +0.1  87  +1  +2      998.2         
12:00 24.03   16 км    ясно  +3.0  -0.4  78  +2  +6      998.2         
12:20 24.03   16 км    ясно  +4.8  +0.5  74  +4  +8      998.2         
12:40 24.03   16 км    ясно  +7.0  0.0  61  +7  +10      998.2         
13:00 24.03   16 км    ясно  +9.1  +0.9  56  +9  +17      998.2         
13:20 24.03   16 км    ясно  +11.9  -0.5  42  +12  +20      998.2         
13:40 24.03 ЮЗ  16 км    ясно  +12.8  -0.7  39  +13  +20      998.2         
14:00 24.03 З  16 км    ясно  +14.3  +0.3  38  +14  +25  опасность
простуды 
  997.9         
14:20 24.03 ЮЗ  16 км    ясно  +16.0  +0.7  35  +16  +23      997.9         
14:40 24.03 ЮЗ  4
{7} 
16 км    ясно  +17.0  +0.6  33  +16  +22      997.6         
15:00 24.03 ЮЗ  16 км    ясно  +17.6  +1.7  34  +17  +27      997.2         
15:40 24.03 ЮЗ  16 км    ясно  +18.1  +2.8  36  +18  +28      996.9         
16:20 24.03 ЮЗ  4
{9} 
16 км    ясно  +19.1  +3.4  35  +19  +27      996.6         
16:40 24.03 ЮЗ  5
{9} 
16 км    ясно  +19.7  +3.5  34  +20  +25      995.9         
17:00 24.03 ЮЗ  4
{8} 
16 км    ясно  +19.9  +3.8  35  +20  +28      995.3         
17:20 24.03 Ю  4
{9} 
16 км    ясно  +20.2  +4.2  35  +21  +29  комфорт    994.9         
17:40 24.03 ЮЗ  16 км    ясно  +20.3  +4.0  34  +21  +29  комфорт    994.3         
18:00 24.03 Ю  5
{8} 
16 км    ясно  +19.9  +3.9  35  +20  +25      993.9         
18:20 24.03 ЮЗ  4
{9} 
16 км    ясно  +19.9  +2.9  32  +20  +28      993.6         
18:40 24.03 ЮЗ  16 км    ясно  +20.5  +4.0  34  +21  +28  комфорт    993.3         
19:00 24.03 ЮЗ  4
{7} 
16 км    ясно  +20.2  +3.1  32  +20  +25      993.3         
19:20 24.03 ЮЗ  4
{7} 
16 км    ясно  +20.3  +3.4  33  +21  +25  комфорт    992.9         
19:40 24.03 ЮЗ  5
{9} 
16 км    ясно  +20.3  +2.7  31  +20  +24      992.9         
20:00 24.03 ЮЗ  4
{9} 
16 км    ясно  +20.0  +2.7  32  +20  +23      992.6         
20:20 24.03 ЮЗ  5
{8} 
16 км    ясно  +20.3  +3.0  32  +20  +22      992.6         

 

Местоположение метеостанции Rowan County Airport: широта 35.6500 долгота -80.5167 высота над уровнем моря 236 м.

В архиве по умолчанию представлена погода в Солсбери за последние 1-2 суток. Обновление информации о фактической погоде в базе происходит ежечасно! Архивные данные за месяц целиком и за предыдущие месяцы Вы можете получить, выбрав интересующий диапазон дат из раскрывающегося списка и нажав кнопку "Ввод!".

Внимание! Архив погоды МЕТАР в базе сайта хранится не более 60 дней. Нет смысла пытаться выбрать более раннюю дату.

Внимание! Время в таблицах - всемирное. Для получения местного времени необходимо прибавить поправку, которая в Солсбери равна -5 ч.

Ветер - указаны скорость ветра в м/с и направление, откуда дует ветер: С - северный, СВ - северо-восточный, В - восточный, ЮВ - юго-восточный, Ю - южный, ЮЗ - юго-западный, З - западный, СЗ - северо-западный.
Видимость - горизонтальная дальность видимости в метрах или километрах. При видимости от 1 до 10 км при отсутствии осадков обычно наблюдается дымка, при ухудшении видимости до 1 км и менее - туман. В сухую погоду видимость может ухудшаться дымом, пылью или мглою.
Атмосферные явления - указаны явления, наблюдавшиеся в указанный момент времени.
Облачность - указаны через наклонную черту верхняя и нижняя облачность в баллах и высота нижней границы облаков в метрах. Внимание: облачность, как и прочие метеорологические величины в США измеряются автоматическими метеостанциями. Указанные значения в баллах носят условный характер и показывают процент времени, в течение которого, в среднем, лазерный луч высотомера отражался от облаков обратно.
T - Температура воздуха - температура, измеренная на высоте 2 м над землей.
Td - Температура точки росы - температура, при понижении до которой содержащийся в воздухе водяной пар достигнет насыщения.
f - Относительная влажность воздуха - влажноcть воздуха, измеренная на высоте 2 м над землей.
Te - Эффективная температура - температура, которую ощущает одетый по сезону человек в тени. Характеристика душности погоды. При расчете учитывается влияние влажности воздуха и скорости ветра на теплоощущения человека.
Tes - Эффективная температура на солнце - температура, которую ощущает человек, с поправкой на солнечный нагрев. Характеристика знойности погоды. Зависит от высоты солнца над горизонтом, облачности и скорости ветра. Ночью, в пасмурную погоду, а также при ветре 12 м/с и более поправка равна нулю.
P - Атмосферное давление - приведенное к уровню моря атмосферное давление.
Po - Атмосферное давление - измеренное на уровне метеостанции атмосферное давление.
Tmin - Минимальная температура - минимум температуры воздуха на высоте 2 м над землей.
Tmax - Максимальная температура - максимум температуры воздуха на высоте 2 м над землей.
R - Количество осадков - Количество выпавших осадков за 3 или 6 часов, мм.
SD - Снежный покров - Высота снежного покрова, см.